Weather History for Dickinson, ND

Change the Weather History Date:

Sunday, October 10, 2010

  Actual Average Record
Temperature  
Mean Temperature 61 °F 46 °F  
Max Temperature 74 °F 60 °F 90 °F (1910)
Min Temperature 47 °F 33 °F -2 °F (1919)
Degree Days  
Heating Degree Days 4 19  
Month to date heating degree days 69 168  
Since 1 July heating degree days 410 522  
Cooling Degree Days 0 0  
Month to date cooling degree days 1 0  
Year to date cooling degree days 302 418  
Growing Degree Days 10 (Base 50)    
Moisture  
Dew Point 51 °F    
Average Humidity 71    
Maximum Humidity 93    
Minimum Humidity 49    
Precipitation  
Precipitation 0.00 in 0.04 in 0.15 in (1982)
Month to date precipitation 0.12 0.46  
Year to date precipitation 13.44 14.22  
Sea Level Pressure  
Sea Level Pressure 29.98 in    
Wind  
Wind Speed 6 mph (NW)    
Max Wind Speed 10 mph    
Max Gust Speed 14 mph    
Visibility 10 miles    
Events      
T = Trace of Precipitation, MM = Missing Value Source: NWS Daily Summary

Daily Weather History Graph

Daily Weather History Graph

Search for Another Location

Airport:

Trip Planner

Search our weather history database for the weather conditions in past years. The results will help you decide how hot, cold, wet, or windy it might be!

Date:

Astronomy

Oct. 10, 2010 Rise Set
Actual Time 7:02 AM MDT 6:13 PM MDT
Civil Twilight 6:31 AM MDT 6:43 PM MDT
Nautical Twilight 5:56 AM MDT 7:18 PM MDT
Astronomical Twilight 5:21 AM MDT 7:54 PM MDT
Moon 10:54 AM MDT (10/10) 7:39 PM MDT (10/10)
Length of Visible Light 12h 12m
Length of Day
11h 11m
Waxing Crescent, 12% of the Moon is Illuminated
Oct 10
Waxing Crescent
Oct 14
First Quarter
Oct 22
Full
Oct 30
Last Quarter
Nov 5
New

Hourly Weather History & Observations

Time (MDT) Temp. Dew Point Humidity Pressure Visibility Wind Dir Wind Speed Gust Speed Precip Events Conditions
12:56 AM 53.1 °F 50.0 °F 89% 29.98 in 10.0 mi NW 11.5 mph - N/A   Clear
1:56 AM 51.1 °F 48.9 °F 92% 29.99 in 10.0 mi NW 9.2 mph - N/A   Clear
2:56 AM 51.1 °F 48.0 °F 89% 29.99 in 10.0 mi NW 9.2 mph - N/A   Clear
3:56 AM 48.9 °F 46.9 °F 93% 29.99 in 10.0 mi NW 6.9 mph - N/A   Clear
4:56 AM 48.0 °F 46.0 °F 93% 30.00 in 7.0 mi WNW 6.9 mph - N/A   Clear
5:56 AM 48.9 °F 46.9 °F 93% 30.02 in 8.0 mi WNW 6.9 mph - N/A   Clear
6:56 AM 48.0 °F 46.9 °F 96% 30.02 in 7.0 mi WNW 9.2 mph - N/A   Clear
7:56 AM 50.0 °F 48.0 °F 93% 30.03 in 7.0 mi NW 10.4 mph - N/A   Clear
8:56 AM 55.0 °F 51.1 °F 86% 30.04 in 10.0 mi NW 5.8 mph - N/A   Clear
9:56 AM 62.1 °F 53.1 °F 72% 30.03 in 10.0 mi NNE 4.6 mph - N/A   Clear
11:56 AM 69.1 °F 55.0 °F 61% 30.01 in 10.0 mi NNW 6.9 mph - N/A   Clear
12:56 PM 71.1 °F 55.0 °F 57% 29.99 in 10.0 mi Variable 3.5 mph - N/A   Clear
1:56 PM 72.0 °F 55.0 °F 55% 29.97 in 10.0 mi Variable 5.8 mph - N/A   Clear
2:56 PM 73.0 °F 55.0 °F 53% 29.95 in 10.0 mi North 6.9 mph - N/A   Clear
3:56 PM 73.0 °F 54.0 °F 51% 29.95 in 10.0 mi NW 3.5 mph - N/A   Clear
5:56 PM 66.9 °F 54.0 °F 63% 29.95 in 10.0 mi NNW 4.6 mph - N/A   Clear
6:56 PM 61.0 °F 53.1 °F 75% 29.97 in 10.0 mi NW 4.6 mph - N/A   Clear
7:56 PM 57.9 °F 53.1 °F 84% 29.97 in 10.0 mi WNW 3.5 mph - N/A   Clear
9:56 PM 51.1 °F 48.0 °F 89% 29.95 in 10.0 mi SSW 3.5 mph - N/A   Clear
10:56 PM 52.0 °F 48.9 °F 89% 29.94 in 10.0 mi SSW 4.6 mph - N/A   Clear
11:56 PM 51.1 °F 48.0 °F 89% 29.94 in 10.0 mi South 4.6 mph - N/A   Clear